Вернуться в каталог

SL-19 DEB

АктивенUNKNOWN
NORAD 23484·DEBRIS·🇷🇺 Russia

Запущен Dec 26, 1994 с Baikonur Cosmodrome

Loading…

Ближайшие Пролёты (ближайшие 24 часа)

TLE

СвежийSource: Space-Track

Эпоха: Sep 14, 2026, 08:10 UTC

1 23484U 94085G   26257.34047043 -.00000601  00000-0 -16229-1 0  9994
2 23484  64.7378  15.6695 0225706 117.6970 274.9125 11.23041123297852

Отслеживайте SL-19 DEB в реальном времени с AllMySat

Download on the App Store